• In Hungary
  • List of Countries
  • For 7 days
  • Water Temperature
  • Satellite Maps
  • Weather Map
  • News
  • Weather Widgets
  • user-avatar
    Login

    Hourly Weather Rawka

    Today, 18 November, Saturday

    Time Temperature Precipitation Wind Pressure Humidity
    00:00 +3°C° 0.1 mm 2 mps 738 mmHg 93%
    01:00 +3°C° 0.1 mm 2 mps 738 mmHg 94%
    02:00 +3°C° 0 mm 2 mps 738 mmHg 94%
    03:00 +3°C° 0 mm 1 mps 737 mmHg 93%
    04:00 +3°C° 0 mm 1 mps 737 mmHg 93%
    05:00 +3°C° 0 mm 1 mps 737 mmHg 92%
    06:00 +3°C° 0 mm 1 mps 736 mmHg 91%
    07:00 +3°C° 0 mm 1 mps 736 mmHg 90%
    08:00 +3°C° 0 mm 1 mps 736 mmHg 85%
    09:00 +3°C° 0 mm 2 mps 736 mmHg 79%
    10:00 +4°C° 0 mm 2 mps 736 mmHg 74%
    11:00 +4°C° 0 mm 2 mps 735 mmHg 71%
    12:00 +3°C° 0 mm 3 mps 735 mmHg 69%
    13:00 +4°C° 0 mm 3 mps 734 mmHg 66%
    14:00 +3°C° 0 mm 3 mps 733 mmHg 69%
    15:00 +2°C° 0 mm 3 mps 733 mmHg 71%
    16:00 +1°C° 0 mm 3 mps 732 mmHg 74%
    17:00 +1°C° 0 mm 3 mps 732 mmHg 75%
    18:00 +1°C° 0 mm 3 mps 732 mmHg 77%
    19:00 0°C° 0 mm 4 mps 731 mmHg 79%
    20:00 0°C° 0 mm 4 mps 731 mmHg 78%
    21:00 0°C° 0 mm 5 mps 731 mmHg 78%
    22:00 0°C° 0 mm 5 mps 730 mmHg 77%
    23:00 0°C° 0.1 mm 5 mps 730 mmHg 78%

    Tomorrow, 19 November, Sunday

    Time Temperature Precipitation Wind Pressure Humidity
    00:00 0°C° 0.1 mm 5 mps 730 mmHg 78%
    01:00 0°C° 0.1 mm 5 mps 729 mmHg 78%
    02:00 0°C° 0.1 mm 5 mps 729 mmHg 80%
    03:00 0°C° 0.1 mm 5 mps 729 mmHg 82%
    04:00 0°C° 0.1 mm 5 mps 729 mmHg 83%
    05:00 -1°C° 0 mm 5 mps 729 mmHg 85%
    06:00 -1°C° 0 mm 4 mps 729 mmHg 87%
    07:00 -1°C° 0 mm 4 mps 729 mmHg 89%
    08:00 -1°C° 0 mm 5 mps 729 mmHg 83%
    09:00 0°C° 0 mm 5 mps 729 mmHg 77%
    10:00 +1°C° 0 mm 6 mps 729 mmHg 71%
    11:00 +2°C° 0 mm 6 mps 729 mmHg 69%
    12:00 +2°C° 0 mm 6 mps 728 mmHg 66%
    13:00 +2°C° 0 mm 6 mps 728 mmHg 64%
    14:00 +2°C° 0.1 mm 6 mps 728 mmHg 67%
    15:00 +1°C° 0.1 mm 6 mps 728 mmHg 70%
    16:00 +1°C° 0.1 mm 5 mps 728 mmHg 74%
    17:00 +1°C° 0.2 mm 6 mps 727 mmHg 75%
    18:00 +1°C° 0.2 mm 6 mps 727 mmHg 77%
    19:00 +1°C° 0.2 mm 6 mps 727 mmHg 78%
    20:00 +1°C° 0.1 mm 6 mps 728 mmHg 79%
    21:00 -1°C° 0.1 mm 6 mps 728 mmHg 80%
    22:00 0°C° 0.1 mm 5 mps 728 mmHg 80%
    23:00 0°C° 0 mm 5 mps 728 mmHg 81%

    Day after tomorrow, 20 November, Monday

    Time Temperature Precipitation Wind Pressure Humidity
    00:00 -1°C° 0 mm 5 mps 728 mmHg 82%
    01:00 -1°C° 0 mm 5 mps 728 mmHg 83%
    02:00 -2°C° 0.2 mm 6 mps 728 mmHg 83%
    03:00 -2°C° 0.2 mm 6 mps 728 mmHg 84%
    04:00 -2°C° 0.2 mm 6 mps 728 mmHg 84%
    05:00 -2°C° 0.4 mm 7 mps 728 mmHg 84%
    06:00 -2°C° 0.4 mm 7 mps 729 mmHg 84%
    07:00 -2°C° 0.4 mm 8 mps 729 mmHg 84%
    08:00 -1°C° 0.1 mm 7 mps 730 mmHg 82%
    09:00 -1°C° 0.1 mm 7 mps 730 mmHg 80%
    10:00 -1°C° 0.1 mm 7 mps 730 mmHg 79%
    11:00 0°C° 0.1 mm 7 mps 731 mmHg 77%
    12:00 0°C° 0.1 mm 7 mps 731 mmHg 76%
    13:00 0°C° 0.1 mm 7 mps 731 mmHg 75%
    14:00 +1°C° 0 mm 6 mps 731 mmHg 77%
    15:00 0°C° 0 mm 5 mps 732 mmHg 78%
    16:00 0°C° 0 mm 4 mps 732 mmHg 80%
    17:00 0°C° 0 mm 4 mps 732 mmHg 83%
    18:00 0°C° 0 mm 3 mps 732 mmHg 85%
    19:00 0°C° 0 mm 3 mps 732 mmHg 88%
    20:00 0°C° 0 mm 3 mps 731 mmHg 89%
    21:00 0°C° 0 mm 3 mps 731 mmHg 90%
    22:00 0°C° 0 mm 3 mps 731 mmHg 90%
    23:00 0°C° 0.2 mm 3 mps 731 mmHg 90%

    21 November, Tuesday

    Time Temperature Precipitation Wind Pressure Humidity
    00:00 0°C° 0.2 mm 3 mps 730 mmHg 90%
    01:00 +1°C° 0.2 mm 3 mps 730 mmHg 90%
    02:00 +1°C° 0.3 mm 3 mps 729 mmHg 90%
    03:00 +1°C° 0.3 mm 3 mps 728 mmHg 91%
    04:00 0°C° 0.3 mm 3 mps 728 mmHg 91%
    05:00 +1°C° 0.9 mm 3 mps 727 mmHg 92%
    06:00 +1°C° 0.9 mm 3 mps 727 mmHg 93%
    07:00 +1°C° 0.9 mm 3 mps 726 mmHg 94%
    08:00 +1°C° 1 mm 3 mps 726 mmHg 95%
    09:00 +2°C° 1 mm 3 mps 726 mmHg 95%
    10:00 +2°C° 1 mm 3 mps 726 mmHg 96%
    11:00 +2°C° 0.2 mm 3 mps 726 mmHg 96%
    12:00 +2°C° 0.2 mm 3 mps 727 mmHg 95%
    13:00 +2°C° 0.2 mm 3 mps 727 mmHg 95%
    14:00 +2°C° 0 mm 3 mps 728 mmHg 95%
    15:00 +2°C° 0 mm 2 mps 728 mmHg 95%
    16:00 +2°C° 0 mm 2 mps 729 mmHg 95%
    17:00 +3°C° 0 mm 1 mps 730 mmHg 94%
    18:00 +3°C° 0 mm 1 mps 730 mmHg 94%
    19:00 +1°C° 0 mm 0 mps 731 mmHg 93%
    20:00 +1°C° 0 mm 0 mps 731 mmHg 93%
    21:00 +2°C° 0 mm 1 mps 731 mmHg 93%
    22:00 +2°C° 0 mm 1 mps 732 mmHg 93%
    23:00 +2°C° 0 mm 1 mps 732 mmHg 93%

    22 November, Wednesday

    Time Temperature Precipitation Wind Pressure Humidity
    00:00 +1°C° 0 mm 1 mps 732 mmHg 93%
    01:00 +1°C° 0 mm 1 mps 732 mmHg 94%
    02:00 +1°C° 0 mm 2 mps 732 mmHg 94%
    03:00 +1°C° 0 mm 2 mps 731 mmHg 95%
    04:00 +1°C° 0 mm 2 mps 731 mmHg 95%
    05:00 +2°C° 0.4 mm 2 mps 731 mmHg 96%
    06:00 +1°C° 0.4 mm 3 mps 731 mmHg 96%
    07:00 +2°C° 0.4 mm 3 mps 731 mmHg 97%
    08:00 +3°C° 0.6 mm 3 mps 731 mmHg 95%
    09:00 +3°C° 0.6 mm 4 mps 731 mmHg 94%
    10:00 +4°C° 0.6 mm 4 mps 731 mmHg 93%
    11:00 +5°C° 0 mm 4 mps 731 mmHg 90%
    12:00 +6°C° 0 mm 4 mps 731 mmHg 86%
    13:00 +6°C° 0 mm 5 mps 731 mmHg 82%
    14:00 +6°C° 0 mm 4 mps 731 mmHg 84%
    15:00 +5°C° 0 mm 4 mps 731 mmHg 86%
    16:00 +5°C° 0 mm 3 mps 731 mmHg 87%
    17:00 +4°C° 0 mm 3 mps 731 mmHg 87%
    18:00 +4°C° 0 mm 3 mps 732 mmHg 88%
    19:00 +4°C° 0 mm 3 mps 732 mmHg 88%
    20:00 +4°C° 0 mm 3 mps 732 mmHg 89%
    21:00 +3°C° 0 mm 3 mps 732 mmHg 89%
    22:00 +3°C° 0 mm 3 mps 733 mmHg 90%
    23:00 +3°C° 0 mm 3 mps 733 mmHg 90%

    23 November, Thursday

    Time Temperature Precipitation Wind Pressure Humidity
    00:00 +3°C° 0 mm 3 mps 733 mmHg 90%
    01:00 +3°C° 0 mm 3 mps 733 mmHg 89%
    02:00 +2°C° 0 mm 3 mps 733 mmHg 89%
    03:00 +2°C° 0 mm 3 mps 733 mmHg 88%
    04:00 +2°C° 0 mm 3 mps 733 mmHg 88%
    05:00 +2°C° 0 mm 3 mps 733 mmHg 87%
    06:00 +2°C° 0 mm 3 mps 733 mmHg 86%
    07:00 +2°C° 0 mm 3 mps 733 mmHg 84%
    08:00 +3°C° 0 mm 3 mps 734 mmHg 79%
    09:00 +4°C° 0 mm 3 mps 734 mmHg 74%
    10:00 +7°C° 0 mm 3 mps 734 mmHg 69%
    11:00 +8°C° 0 mm 3 mps 734 mmHg 67%
    12:00 +9°C° 0 mm 3 mps 734 mmHg 65%
    13:00 +9°C° 0 mm 3 mps 734 mmHg 62%
    14:00 +8°C° 0 mm 2 mps 734 mmHg 67%
    15:00 +7°C° 0 mm 2 mps 734 mmHg 71%
    16:00 +6°C° 0 mm 2 mps 734 mmHg 75%
    17:00 +5°C° 0 mm 3 mps 734 mmHg 78%
    18:00 +5°C° 0 mm 3 mps 734 mmHg 80%
    19:00 +4°C° 0 mm 3 mps 734 mmHg 82%
    20:00 +4°C° 0 mm 3 mps 735 mmHg 84%
    21:00 +4°C° 0 mm 3 mps 735 mmHg 86%
    22:00 +4°C° 0 mm 3 mps 735 mmHg 87%
    23:00 +4°C° 0 mm 3 mps 735 mmHg 88%
    Show more